Showing default

ION SCV-017, 63230

Orbit data source: Space-Track

ION SCV-017, 63230 is a payload satellite owned by D-ORBIT (IT) in SSO that was launched on Sat, 15 Mar 2025 UTC via an FALCON 9 launch vehicle from the Air Force Western Test Range (AFWTR). Payload-class satellites include a variety of spacecraft equipped with specific instruments for various scientific and technological missions. These include communications satellites like Starlink; space stations such as the ISS; scientific satellites like the Hubble; Earth observation satellites from companies like Planet Labs, Umbra, and HawkEye 360; GPS; miniature CubeSats for education and research; and military/defense satellites.

Loading next visibility...
Identifier
63230, 2025-052W
Orbit
SSO
Country
Flag of ITIT
Related business
Manufacturer
D-ORBIT
Mission
Operational Commercial Technology
Bus & Motor
ION-SC, PM200
Mass
220 kg wet, 150 kg dry
Launch date (UTC)
2025-03-15 (1 year ago)
Launch vehicle
FALCON 9
Launch site
Air Force Western Test Range (AFWTR)
Object type
Payload
Rocket body
Debris
Shape & HBR
Box, 2.0 m
Radar Cross Section
0.240 m², Large (>1 m²)

Expand to show TLE details & history
Last TLE update: 8 hours ago

TLE from 8 hours ago
0 ION SCV-017
1 63230U 25052W   26254.66954654  .00003227  00000-0  11857-3 0  9991
2 63230  97.3778 149.0819 0023399 102.6280 257.7578 15.28393738 83241
Epoch: 2026-09-11T16:04Z
TLE epoch observation values (Epoch: 2026-09-11T16:04:08.821Z)
Latitude
-0.00001°
Longitude
-82.64443°
Altitude
487.156 km
Speed
7.62 km/s
True Right ascension
09h 56m 19s
True Declination
0° 00' 00"
Sunlit
Object was in daylight at epoch
Visualization orbit readout
Latitude
Unknown
Longitude
Unknown
Altitude
Unknown
Speed
Unknown
Apparent Right ascension
Unknown
Apparent Declination
Unknown
Sunlit
N/A
Visualization observer readout
Local Sidereal Time
16:12:28
Azimuth
Unknown
Elevation
Unknown
Doppler factor
Unknown
Orbital elements
Apogee altitude
493.609 km
Perigee altitude
461.525 km
Semi-major axis
6,855.704 km
Eccentricity
0.00234
Inclination
97.3778°
RAAN
149.0819°
Arg. of periapsis
102.628°
True anomaly
257.49593°
Mean anomaly
257.7578°
Eccentric anomaly
257.62685°
Mean motion
3.82354 °/min
Orbital period
94.15 mins
BSTAR
0.00011857
Loading maneuver chart data...
Computing Atmospheric mass density...
Loading historical data...
Loading historical data...
Loading historical data...
Loading historical data...
Loading historical data...
Loading historical data...
Loading historical data...

Documentation

Showing up to 5 results
|